Weather observations for the past three days for
San Antonio - Kelly Field
| Date | Time (cdt) | Wind (kph) | Vis. (km) | Weather | Sky Cond. | Temperature (ºC) | Relative Humidity | Wind Chill (°C) | Heat Index (°C) | Pressure | Precipitation (cm) | ||||||
|---|---|---|---|---|---|---|---|---|---|---|---|---|---|---|---|---|---|
| Air | Dwpt | 6 hour | altimeter (cm) | sea level (mb) | 1 hr | 3 hr | 6 hr | ||||||||||
| Max. | Min. | ||||||||||||||||
| 03 | 03:55 | SE 15 | 16.09 | Overcast | OVC014 | 27.6 | 24.4 | 83% | 31 | 75.92 | 1011.2 | ||||||
| 03 | 02:55 | SE 17 | 16.09 | Mostly Cloudy | BKN016 | 27.4 | 24.2 | 83% | 31 | 75.92 | 1011.2 | ||||||
| 03 | 01:55 | SE 17 | 16.09 | Fair | CLR | 28.1 | 23.4 | 76% | 32 | 75.92 | 1011.2 | ||||||
| 03 | 00:55 | S 13 | 16.09 | Fair | CLR | 28.2 | 23.5 | 37.3 | 28.2 | 76% | 32 | 75.92 | 1011.2 | ||||
| 02 | 23:55 | SE 20 | 16.09 | Fair | CLR | 29.3 | 23 | 69% | 33 | 75.9 | 1010.9 | ||||||
| 02 | 22:55 | SE 28 G 39 | 16.09 | Fair | CLR | 31.4 | 21.2 | 55% | 34 | 75.87 | 1010.6 | ||||||
| 02 | 21:55 | SE 28 | 16.09 | Fair | CLR | 33.4 | 21.5 | 50% | 37 | 75.79 | 1009.5 | ||||||
| 02 | 20:55 | SE 9 | 16.09 | Fair | CLR | 34.2 | 18.2 | 39% | 35 | 75.72 | 1008.5 | ||||||
| 02 | 19:55 | SE 11 | 16.09 | Fair | CLR | 33.5 | 19.2 | 43% | 35 | 75.69 | 1008.2 | ||||||
| 02 | 18:55 | S 9 | 16.09 | Fair | CLR | 37.4 | 16.8 | 38.6 | 34.2 | 30% | 38 | 75.69 | 1008.2 | ||||
| 02 | 17:55 | Calm | 14.48 | Fair | CLR | 38.5 | 16.7 | 28% | 39 | 75.72 | 1008.5 | ||||||
| 02 | 16:55 | Calm | 16.09 | Fair | CLR | 37.8 | 18.2 | 32% | 40 | 75.74 | 1008.8 | ||||||
| 02 | 15:55 | S 7 | 16.09 | Fair | CLR | 37.3 | 18.3 | 33% | 39 | 75.79 | 1009.5 | ||||||
| 02 | 14:55 | N 7 | 16.09 | Fair | CLR | 37.6 | 18 | 32% | 39 | 75.87 | 1010.5 | ||||||
| 02 | 13:55 | S 9 | 16.09 | Fair | CLR | 35.8 | 20 | 40% | 39 | 75.95 | 1011.6 | ||||||
| 02 | 12:55 | Calm | 16.09 | A Few Clouds | FEW210 | 34.4 | 21.8 | 34.4 | 24.7 | 48% | 39 | 76.05 | 1012.9 | ||||
| 02 | 11:55 | Calm | 16.09 | Fair | CLR | 32 | 22.7 | 58% | 36 | 76.1 | 1013.6 | ||||||
| 02 | 10:55 | SW 7 | 16.09 | Fair | CLR | 31.3 | 23.6 | 64% | 36 | 76.12 | 1014.0 | ||||||
| 02 | 09:55 | Calm | 16.09 | Fair | CLR | 28.5 | 24 | 77% | 33 | 76.12 | 1014.0 | ||||||
| 02 | 08:55 | SE 7 | 14.48 | Fair | CLR | 27 | 24 | 84% | 30 | 76.12 | 1014.0 | ||||||
| 02 | 07:55 | Calm | 11.27 | Fair | CLR | 25.6 | 23.4 | 88% | 27 | 76.07 | 1013.3 | ||||||
| 02 | 06:55 | Calm | 16.09 | Fair | CLR | 25.1 | 23.1 | 28.3 | 25 | 89% | 26 | 76.05 | 1012.9 | ||||
| 02 | 05:57 | S 6 | 16.09 | A Few Clouds | FEW012 | 25.5 | 23.1 | 87% | 27 | 76.05 | 1012.9 | ||||||
| 02 | 04:55 | S 9 | 16.09 | Fair | CLR | 26 | 22.9 | 83% | 28 | 76.02 | 1012.6 | ||||||
| 02 | 03:55 | SE 9 | 16.09 | Fair | CLR | 26.2 | 22.2 | 79% | 28 | 76.05 | 1012.9 | ||||||
| 02 | 02:55 | SE 6 | 16.09 | Fair | CLR | 26.3 | 21.9 | 77% | 28 | 76.05 | 1012.9 | ||||||
| 02 | 01:55 | SE 11 | 16.09 | Fair | CLR | 27.7 | 21.5 | 69% | 30 | 76.05 | 1012.9 | ||||||
| 02 | 00:55 | SE 11 | 16.09 | Fair | CLR | 28.4 | 20.6 | 36.5 | 28.3 | 63% | 30 | 76.02 | 1012.6 | ||||
| 01 | 23:55 | SE 20 | 16.09 | Fair | CLR | 30.5 | 19.5 | 52% | 32 | 76.02 | 1012.6 | ||||||
| 01 | 22:55 | E 20 | 16.09 | Fair | CLR | 31.5 | 20.4 | 52% | 34 | 76 | 1012.2 | ||||||
| 01 | 21:55 | E 15 | 16.09 | A Few Clouds | FEW080 | 33.1 | 19.5 | 45% | 35 | 75.92 | 1011.2 | ||||||
| 01 | 20:55 | SE 7 | 16.09 | Fair | CLR | 32.3 | 19.2 | 46% | 34 | 75.84 | 1010.2 | ||||||
| 01 | 19:55 | SE 11 | 16.09 | Fair | CLR | 34.7 | 17.8 | 37% | 36 | 75.82 | 1009.9 | ||||||
| 01 | 18:55 | SE 6 | 16.09 | Fair | CLR | 36.6 | 16.2 | 37.7 | 34.3 | 30% | 37 | 75.82 | 1009.9 | ||||
| 01 | 17:55 | SE 7 | 16.09 | Fair | CLR | 37.1 | 16.1 | 29% | 38 | 75.84 | 1010.2 | ||||||
| 01 | 16:55 | N 9 | 16.09 | Fair | CLR | 37.6 | 15.9 | 28% | 38 | 75.84 | 1010.2 | ||||||
| 01 | 15:55 | E 9 | 16.09 | A Few Clouds | FEW200 | 37 | 16.5 | 30% | 38 | 75.9 | 1010.9 | ||||||
| 01 | 14:55 | S 6 | 16.09 | Fair | CLR | 35.8 | 17 | 33% | 37 | 75.97 | 1011.9 | ||||||
| 01 | 13:55 | S 13 | 14.48 | Fair | CLR | 35 | 17.7 | 36% | 36 | 76.02 | 1012.6 | ||||||
| 01 | 12:55 | S 13 | 16.09 | A Few Clouds | FEW055 | 34.6 | 18.2 | 34.6 | 25.7 | 38% | 36 | 76.1 | 1013.6 | ||||
| 01 | 11:56 | Calm | 16.09 | Fair | CLR | 32.6 | 19.1 | 45% | 34 | 76.15 | 1014.3 | ||||||
| 01 | 10:55 | SE 9 | 16.09 | Fair | CLR | 31.4 | 20.6 | 53% | 34 | 76.17 | 1014.6 | ||||||
| 01 | 08:56 | Vrbl 6 | 16.09 | Fair | CLR | 28.1 | 23.2 | 75% | 32 | 76.15 | 1014.3 | ||||||
| 01 | 07:55 | Calm | 11.27 | Fair | CLR | 26.6 | 23.8 | 85% | 29 | 76.12 | 1014.0 | ||||||
| 01 | 06:55 | SE 6 | 14.48 | Fair | CLR | 25.6 | 23.4 | 28.4 | 25.5 | 88% | 27 | 76.12 | 1014.0 | ||||
| 01 | 05:55 | Calm | 14.48 | A Few Clouds | FEW016 | 26.4 | 23.6 | 85% | 29 | 76.1 | 1013.6 | ||||||
| 01 | 04:55 | S 6 | 16.09 | Overcast | BKN016 OVC022 | 27 | 24 | 84% | 30 | 76.1 | 1013.6 | ||||||
| 01 | 03:55 | S 7 | 16.09 | Overcast | OVC015 | 26.9 | 23.9 | 84% | 30 | 76.12 | 1013.9 | ||||||
| 01 | 02:55 | SE 13 | 16.09 | Mostly Cloudy | BKN017 | 27.2 | 23.8 | 82% | 30 | 76.1 | 1013.6 | ||||||
| 01 | 01:55 | SE 17 | 16.09 | Fair | CLR | 27.6 | 22.9 | 76% | 31 | 76.1 | 1013.6 | ||||||
| 01 | 00:55 | SE 19 | 12.87 | Fair | CLR | 28.3 | 22.3 | 36.4 | 28.2 | 70% | 31 | 76.1 | 1013.6 | ||||
| 31 | 23:55 | SE 19 | 16.09 | Fair | CLR | 29.4 | 21.3 | 62% | 32 | 76.05 | 1012.9 | ||||||
| 31 | 22:55 | SE 30 G 37 | 16.09 | Fair | CLR | 30.7 | 20.3 | 54% | 33 | 76.02 | 1012.6 | ||||||
| 31 | 21:55 | SE 28 G 39 | 16.09 | Fair | CLR | 31.8 | 20.4 | 51% | 34 | 75.97 | 1011.9 | ||||||
| 31 | 20:55 | E 28 G 37 | 16.09 | A Few Clouds | FEW080 | 34.2 | 19 | 41% | 36 | 75.9 | 1010.9 | ||||||
| 31 | 19:55 | E 15 | 16.09 | Fair | CLR | 35 | 18.5 | 38% | 37 | 75.84 | 1010.2 | ||||||
| 31 | 17:55 | E 15 | 16.09 | Fair | CLR | 37.2 | 16.7 | 30% | 38 | 75.84 | 1010.2 | ||||||
| 31 | 16:55 | E 11 | 16.09 | Fair | CLR | 37.4 | 16.8 | 30% | 38 | 75.87 | 1010.5 | ||||||
| 31 | 15:55 | E 9 | 12.87 | Fair | CLR | 36.5 | 18.5 | 35% | 38 | 75.92 | 1011.2 | ||||||
| 31 | 14:55 | E 19 | 16.09 | Partly Cloudy | FEW065 SCT170 | 36.6 | 19.5 | 37% | 39 | 76.02 | 1012.6 | ||||||
| 31 | 13:56 | Vrbl 11 | 16.09 | Partly Cloudy | SCT060 | 34.8 | 19.6 | 41% | 37 | 76.07 | 1013.3 | ||||||
| 31 | 12:56 | SE 19 G 26 | 16.09 | Partly Cloudy | SCT050 | 34.4 | 20.3 | 34.4 | 26.2 | 44% | 37 | 76.12 | 1014.0 | ||||
| 31 | 11:58 | SE 9 | 16.09 | A Few Clouds | FEW035 | 33 | 19.8 | 46% | 35 | 76.15 | 1014.3 | ||||||
| 31 | 10:55 | SE 19 | 16.09 | Partly Cloudy | SCT026 | 31.4 | 22.4 | 59% | 35 | 76.17 | 1014.6 | ||||||
| 31 | 09:55 | S 11 | 12.87 | Mostly Cloudy | SCT018 BKN024 | 29.6 | 23.7 | 71% | 34 | 76.15 | 1014.3 | ||||||
| 31 | 08:55 | SE 9 | 12.87 | A Few Clouds | FEW011 | 27.6 | 24.4 | 83% | 31 | 76.12 | 1014.0 | ||||||
| 31 | 07:55 | SE 9 | 12.87 | Fair | CLR | 26.7 | 24.3 | 87% | 30 | 76.1 | 1013.6 | ||||||
| 31 | 06:55 | SE 7 | 16.09 | Overcast | OVC011 | 26.6 | 24 | 27.8 | 26.1 | 86% | 29 | 76.1 | 1013.6 | ||||
| 31 | 05:55 | SE 7 | 16.09 | Partly Cloudy | FEW011 SCT016 | 26.4 | 23.8 | 86% | 29 | 76.07 | 1013.3 | ||||||
| Date | Time (cdt) | Wind (kph) | Vis. (km) | Weather | Sky Cond. | Air | Dwpt | Max. | Min. | Relative Humidity | Wind Chill (°C) | Heat Index (°C) | altimeter (cm) | sea level (mb) | 1 hr | 3 hr | 6 hr |
| 6 hour | |||||||||||||||||
| Temperature (ºC) | Pressure | Precipitation (cm) | |||||||||||||||